This is the latest recevied weather packets stored in our database for station/object YC0TBU-4. If no packets are shown the sender has not sent any weather packets the latest 10 day(s).
| Time | Temp. | Humidity | Pressure | Rain* | Wind** | Luminosity | Snow |
|---|---|---|---|---|---|---|---|
| 1787415240 | 28.33° C | 43% | 1015.7 hPa | - | - | - | - |
| 1787413439 | 27.78° C | 43% | 1015.9 hPa | - | - | - | - |
| 1787411645 | 28.89° C | 42% | 1015.9 hPa | - | - | - | - |
| 1787409824 | 28.89° C | 41% | 1015.6 hPa | - | - | - | - |
| 1787408024 | 28.33° C | 42% | 1015.3 hPa | - | - | - | - |
| 1787406224 | 28.89° C | 41% | 1015 hPa | - | - | - | - |
| 1787404423 | 28.89° C | 40% | 1014.7 hPa | - | - | - | - |
| 1787402623 | 28.89° C | 40% | 1014.4 hPa | - | - | - | - |
| 1787400823 | 29.44° C | 39% | 1014 hPa | - | - | - | - |
| 1787398991 | 28.89° C | 38% | 1013.5 hPa | - | - | - | - |
| 1787397191 | 29.44° C | 38% | 1013.1 hPa | - | - | - | - |
| 1787395391 | 29.44° C | 37% | 1012.8 hPa | - | - | - | - |
| 1787393591 | 30° C | 37% | 1012.6 hPa | - | - | - | - |
| 1787391791 | 30° C | 36% | 1012.4 hPa | - | - | - | - |
| 1787389990 | 30.56° C | 35% | 1012.1 hPa | - | - | - | - |
| 1787388174 | 32.22° C | 34% | 1011.8 hPa | - | - | - | - |
| 1787386374 | 32.22° C | 33% | 1011.8 hPa | - | - | - | - |
| 1787384574 | 31.67° C | 33% | 1012 hPa | - | - | - | - |
| 1787382774 | 30.56° C | 34% | 1012.4 hPa | - | - | - | - |
| 1787380974 | 31.11° C | 32% | 1012.8 hPa | - | - | - | - |
| 1787379174 | 31.11° C | 33% | 1013.3 hPa | - | - | - | - |
| 1787377374 | 31.11° C | 32% | 1013.9 hPa | - | - | - | - |
| 1787375574 | 30° C | 34% | 1014.5 hPa | - | - | - | - |
| 1787373774 | 30° C | 35% | 1015.1 hPa | - | - | - | - |
| 1787371974 | 29.44° C | 36% | 1015.6 hPa | - | - | - | - |
* Rain since midnight (hover to see other rain measurements)
** Current wind speed in m/s (hover to see current wind gust speed)